Location: Berg
(48.4333°N, 13.9167°E)
Time: 05:41:17
(UTC+00:00)

ATLAS 2AS CENTAUR R/B - Pass Details

Date: 18 September 2020
Orbit: 939 x 1273 km, 63.7° (Epoch: 27 October)

Event Time Altitude Azimuth Distance (km) Brightness Sun altitude
Exits shadow 22:59:06 11° 278° (W) 3,166 5.2 -40.2°
Maximum altitude 23:05:44 32° 338° (NNW) 1,999 4.4 -40.1°
Drops below altitude 10° 23:12:32 10° 40° (NE) 3,167 5.6 -40.1°
Sets 23:15:37 0° 50° (NE) 4,088 6.3 -40.0°
